Location: Unspecified
(0.0000°N, 0.0000°E)
Time: 02:46:27
(UTC+00:00)

Hubble Space Telescope - Pass Details

Date: 19 April 2018
Orbit: 537 x 541 km, 28.5° (Epoch: 17 July)

Event Time Altitude Azimuth Distance (km) Brightness Sun altitude
Rises 19:57:17 0° 249° (WSW) 2,678 5.1 -28.9°
Reaches altitude 10° 19:59:36 10° 255° (WSW) 1,786 4.1 -29.5°
Enters shadow 20:01:49 28° 271° (W) 1,013 2.7 -30.0°
